Location: Lewisville
(33.0462°N, 96.9942°W)
Time: 04:30:15
(UTC-05:00)

Tiangong - Pass Details

Date: 06 September 2021
Orbit: 382 x 385 km, 41.5° (Epoch: 27 September)

Event Time Altitude Azimuth Distance (km) Brightness Sun altitude
Rises 21:46:10 0° 286° (WNW) 2,251 6.3 -24.9°
Reaches altitude 10° 21:48:31 10° 270° (W) 1,395 4.7 -25.4°
Enters shadow 21:49:41 17° 253° (WSW) 1,061 3.8 -25.6°
